owner,sensor,date,latitude,longitude,vertical_datum,wind_speed,wind_to_direction,wind_speed_of_gust,qcFlag 
NDBC,ioos:station:NOAA.NDBC:SANF1:1,2017-05-01T00:50:00Z,24.4560,-81.8770,45.4,12.4,120.0,14.4,'1111122,1111122,1111122' 
NDBC,ioos:station:NOAA.NDBC:SANF1:1,2017-05-01T02:50:00Z,24.4560,-81.8770,45.4,11.3,130.0,13.4,'1111122,1111122,1111122' 
NDBC,ioos:station:NOAA.NDBC:SANF1:1,2017-05-01T03:50:00Z,24.4560,-81.8770,45.4,10.8,130.0,12.4,'1111122,1111122,1111122' 
NDBC,ioos:station:NOAA.NDBC:SANF1:1,2017-05-01T04:50:00Z,24.4560,-81.8770,45.4,11.3,140.0,13.4,'1111122,1111122,1111122' 
NDBC,ioos:station:NOAA.NDBC:SANF1:1,2017-05-01T06:50:00Z,24.4560,-81.8770,45.4,10.8,140.0,12.4,'1111122,1111122,1111122' 
NDBC,ioos:station:NOAA.NDBC:SANF1:1,2017-05-01T07:50:00Z,24.4560,-81.8770,45.4,10.8,150.0,12.9,'1111122,1111122,1111122' 
NDBC,ioos:station:NOAA.NDBC:SANF1:1,2017-05-01T08:50:00Z,24.4560,-81.8770,45.4,10.8,150.0,12.9,'1111122,1111122,1111122' 
NDBC,ioos:station:NOAA.NDBC:SANF1:1,2017-05-01T09:50:00Z,24.4560,-81.8770,45.4,10.3,150.0,11.8,'1111122,1111122,1111122' 
NDBC,ioos:station:NOAA.NDBC:SANF1:1,2017-05-01T10:50:00Z,24.4560,-81.8770,45.4,9.3,160.0,10.3,'1111122,1111122,1111122' 
NDBC,ioos:station:NOAA.NDBC:SANF1:1,2017-05-01T11:50:00Z,24.4560,-81.8770,45.4,8.2,150.0,9.3,'1111122,1111122,1111122' 
NDBC,ioos:station:NOAA.NDBC:SANF1:1,2017-05-01T12:50:00Z,24.4560,-81.8770,45.4,9.3,150.0,10.3,'1111122,1111122,1111122' 
NDBC,ioos:station:NOAA.NDBC:SANF1:1,2017-05-01T13:50:00Z,24.4560,-81.8770,45.4,9.3,160.0,10.3,'1111122,1111122,1111122' 
NDBC,ioos:station:NOAA.NDBC:SANF1:1,2017-05-01T14:50:00Z,24.4560,-81.8770,45.4,8.8,160.0,9.8,'1111122,1111122,1111122' 
NDBC,ioos:station:NOAA.NDBC:SANF1:1,2017-05-01T15:50:00Z,24.4560,-81.8770,45.4,8.8,160.0,9.8,'1111122,1111122,1111122' 
NDBC,ioos:station:NOAA.NDBC:SANF1:1,2017-05-01T17:50:00Z,24.4560,-81.8770,45.4,6.2,140.0,7.2,'1111122,1111122,1111122' 
NDBC,ioos:station:NOAA.NDBC:SANF1:1,2017-05-01T18:50:00Z,24.4560,-81.8770,45.4,6.2,150.0,6.7,'1111122,1111122,1111122' 
NDBC,ioos:station:NOAA.NDBC:SANF1:1,2017-05-01T20:50:00Z,24.4560,-81.8770,45.4,5.1,120.0,6.2,'1111122,1111122,1111122' 
NDBC,ioos:station:NOAA.NDBC:SANF1:1,2017-05-01T21:50:00Z,24.4560,-81.8770,45.4,5.7,120.0,6.2,'1111122,1111122,1111122' 
NDBC,ioos:station:NOAA.NDBC:SANF1:1,2017-05-01T22:50:00Z,24.4560,-81.8770,45.4,6.2,120.0,7.2,'1111122,1111122,1111122' 
NDBC,ioos:station:NOAA.NDBC:SANF1:1,2017-05-01T23:50:00Z,24.4560,-81.8770,45.4,7.7,130.0,8.8,'1111122,1111122,1111122' 
NDBC,ioos:station:NOAA.NDBC:SANF1:1,2017-05-02T01:50:00Z,24.4560,-81.8770,45.4,8.2,140.0,9.8,'1111122,1111122,1111122' 
NDBC,ioos:station:NOAA.NDBC:SANF1:1,2017-05-02T02:50:00Z,24.4560,-81.8770,45.4,9.8,130.0,11.3,'1111122,1111122,1111122' 
NDBC,ioos:station:NOAA.NDBC:SANF1:1,2017-05-02T03:50:00Z,24.4560,-81.8770,45.4,12.4,140.0,13.9,'1111122,1111122,1111122' 
NDBC,ioos:station:NOAA.NDBC:SANF1:1,2017-05-02T04:50:00Z,24.4560,-81.8770,45.4,12.4,150.0,13.9,'1111122,1111122,1111122' 
NDBC,ioos:station:NOAA.NDBC:SANF1:1,2017-05-02T05:50:00Z,24.4560,-81.8770,45.4,13.4,160.0,15.4,'1111122,1111122,1111122' 
NDBC,ioos:station:NOAA.NDBC:SANF1:1,2017-05-02T06:50:00Z,24.4560,-81.8770,45.4,9.8,160.0,11.3,'1111122,1111122,1111122' 
NDBC,ioos:station:NOAA.NDBC:SANF1:1,2017-05-02T07:50:00Z,24.4560,-81.8770,45.4,6.7,170.0,8.2,'1111122,1111122,1111122' 
NDBC,ioos:station:NOAA.NDBC:SANF1:1,2017-05-02T08:50:00Z,24.4560,-81.8770,45.4,5.1,150.0,5.7,'1111122,1111122,1111122' 
NDBC,ioos:station:NOAA.NDBC:SANF1:1,2017-05-02T09:50:00Z,24.4560,-81.8770,45.4,5.1,150.0,5.7,'1111122,1111122,1111122' 
NDBC,ioos:station:NOAA.NDBC:SANF1:1,2017-05-02T10:50:00Z,24.4560,-81.8770,45.4,7.2,180.0,8.8,'1111122,1111122,1111122' 
NDBC,ioos:station:NOAA.NDBC:SANF1:1,2017-05-02T11:50:00Z,24.4560,-81.8770,45.4,4.1,150.0,4.6,'1111122,1111122,1111122' 
NDBC,ioos:station:NOAA.NDBC:SANF1:1,2017-05-02T13:50:00Z,24.4560,-81.8770,45.4,4.1,120.0,5.1,'1111122,1111122,1111122' 
NDBC,ioos:station:NOAA.NDBC:SANF1:1,2017-05-02T15:50:00Z,24.4560,-81.8770,45.4,5.1,150.0,5.7,'1111122,1111122,1111122' 
NDBC,ioos:station:NOAA.NDBC:SANF1:1,2017-05-02T16:50:00Z,24.4560,-81.8770,45.4,4.6,150.0,5.7,'1111122,1111122,1111122' 
NDBC,ioos:station:NOAA.NDBC:SANF1:1,2017-05-02T17:50:00Z,24.4560,-81.8770,45.4,4.1,130.0,5.1,'1111122,1111122,1111122' 
NDBC,ioos:station:NOAA.NDBC:SANF1:1,2017-05-02T18:50:00Z,24.4560,-81.8770,45.4,4.1,130.0,5.1,'1111122,1111122,1111122' 
NDBC,ioos:station:NOAA.NDBC:SANF1:1,2017-05-02T19:50:00Z,24.4560,-81.8770,45.4,3.6,150.0,4.1,'1111122,1111122,1111122' 
NDBC,ioos:station:NOAA.NDBC:SANF1:1,2017-05-02T21:50:00Z,24.4560,-81.8770,45.4,3.6,130.0,4.1,'1111122,1111122,1111122' 
NDBC,ioos:station:NOAA.NDBC:SANF1:1,2017-05-02T23:50:00Z,24.4560,-81.8770,45.4,3.6,140.0,4.1,'1111122,1111122,1111122' 
NDBC,ioos:station:NOAA.NDBC:SANF1:1,2017-05-03T00:50:00Z,24.4560,-81.8770,45.4,3.1,120.0,4.1,'1111122,1111122,1111122' 
NDBC,ioos:station:NOAA.NDBC:SANF1:1,2017-05-03T01:50:00Z,24.4560,-81.8770,45.4,4.1,120.0,4.6,'1111122,1111122,1111122' 
NDBC,ioos:station:NOAA.NDBC:SANF1:1,2017-05-03T02:50:00Z,24.4560,-81.8770,45.4,4.6,120.0,5.1,'1111122,1111122,1111122' 
NDBC,ioos:station:NOAA.NDBC:SANF1:1,2017-05-03T03:50:00Z,24.4560,-81.8770,45.4,6.2,110.0,6.7,'1111122,1111122,1111122' 
NDBC,ioos:station:NOAA.NDBC:SANF1:1,2017-05-03T04:50:00Z,24.4560,-81.8770,45.4,7.7,110.0,8.8,'1111122,1111122,1111122' 
NDBC,ioos:station:NOAA.NDBC:SANF1:1,2017-05-03T05:50:00Z,24.4560,-81.8770,45.4,8.8,100.0,9.8,'1111122,1111122,1111122' 
NDBC,ioos:station:NOAA.NDBC:SANF1:1,2017-05-03T06:50:00Z,24.4560,-81.8770,45.4,6.2,110.0,6.7,'1111122,1111122,1111122' 
NDBC,ioos:station:NOAA.NDBC:SANF1:1,2017-05-03T07:50:00Z,24.4560,-81.8770,45.4,5.1,130.0,5.7,'1111122,1111122,1111122' 
NDBC,ioos:station:NOAA.NDBC:SANF1:1,2017-05-03T08:50:00Z,24.4560,-81.8770,45.4,5.1,150.0,5.7,'1111122,1111122,1111122' 
NDBC,ioos:station:NOAA.NDBC:SANF1:1,2017-05-03T09:50:00Z,24.4560,-81.8770,45.4,5.1,160.0,5.7,'1111122,1111122,1111122' 
NDBC,ioos:station:NOAA.NDBC:SANF1:1,2017-05-03T10:50:00Z,24.4560,-81.8770,45.4,4.6,160.0,5.7,'1111122,1111122,1111122' 
NDBC,ioos:station:NOAA.NDBC:SANF1:1,2017-05-03T11:50:00Z,24.4560,-81.8770,45.4,4.1,150.0,4.6,'1111122,1111122,1111122' 
NDBC,ioos:station:NOAA.NDBC:SANF1:1,2017-05-03T12:50:00Z,24.4560,-81.8770,45.4,3.6,150.0,4.6,'1111122,1111122,1111122' 
NDBC,ioos:station:NOAA.NDBC:SANF1:1,2017-05-03T13:50:00Z,24.4560,-81.8770,45.4,3.1,140.0,3.6,'1111122,1111122,1111122' 
NDBC,ioos:station:NOAA.NDBC:SANF1:1,2017-05-03T14:50:00Z,24.4560,-81.8770,45.4,2.6,130.0,3.1,'1111122,1111122,1111122' 
NDBC,ioos:station:NOAA.NDBC:SANF1:1,2017-05-03T15:50:00Z,24.4560,-81.8770,45.4,2.6,120.0,4.1,'1111122,1111122,1111122' 
NDBC,ioos:station:NOAA.NDBC:SANF1:1,2017-05-03T17:50:00Z,24.4560,-81.8770,45.4,4.1,120.0,5.1,'1111122,1111122,1111122' 
NDBC,ioos:station:NOAA.NDBC:SANF1:1,2017-05-03T18:50:00Z,24.4560,-81.8770,45.4,5.7,120.0,6.2,'1111122,1111122,1111122' 
NDBC,ioos:station:NOAA.NDBC:SANF1:1,2017-05-03T20:50:00Z,24.4560,-81.8770,45.4,5.7,130.0,6.2,'1111122,1111122,1111122' 
NDBC,ioos:station:NOAA.NDBC:SANF1:1,2017-05-03T22:50:00Z,24.4560,-81.8770,45.4,4.6,130.0,5.1,'1111122,1111122,1111122' 
NDBC,ioos:station:NOAA.NDBC:SANF1:1,2017-05-04T00:50:00Z,24.4560,-81.8770,45.4,6.7,120.0,7.7,'1111122,1111122,1111122' 
NDBC,ioos:station:NOAA.NDBC:SANF1:1,2017-05-04T02:50:00Z,24.4560,-81.8770,45.4,8.8,120.0,10.3,'1111122,1111122,1111122' 
NDBC,ioos:station:NOAA.NDBC:SANF1:1,2017-05-04T03:50:00Z,24.4560,-81.8770,45.4,8.8,120.0,10.3,'1111122,1111122,1111122' 
NDBC,ioos:station:NOAA.NDBC:SANF1:1,2017-05-04T05:50:00Z,24.4560,-81.8770,45.4,8.2,130.0,9.8,'1111122,1111122,1111122' 
NDBC,ioos:station:NOAA.NDBC:SANF1:1,2017-05-04T06:50:00Z,24.4560,-81.8770,45.4,7.2,120.0,9.3,'1111122,1111122,1111122' 
NDBC,ioos:station:NOAA.NDBC:SANF1:1,2017-05-04T07:50:00Z,24.4560,-81.8770,45.4,7.2,130.0,8.8,'1111122,1111122,1111122' 
NDBC,ioos:station:NOAA.NDBC:SANF1:1,2017-05-04T08:50:00Z,24.4560,-81.8770,45.4,6.7,140.0,7.7,'1111122,1111122,1111122' 
NDBC,ioos:station:NOAA.NDBC:SANF1:1,2017-05-04T09:50:00Z,24.4560,-81.8770,45.4,7.2,160.0,8.8,'1111122,1111122,1111122' 
NDBC,ioos:station:NOAA.NDBC:SANF1:1,2017-05-04T10:50:00Z,24.4560,-81.8770,45.4,6.7,150.0,7.7,'1111122,1111122,1111122' 
NDBC,ioos:station:NOAA.NDBC:SANF1:1,2017-05-04T11:50:00Z,24.4560,-81.8770,45.4,7.2,160.0,8.2,'1111122,1111122,1111122' 
NDBC,ioos:station:NOAA.NDBC:SANF1:1,2017-05-04T12:50:00Z,24.4560,-81.8770,45.4,7.2,150.0,7.7,'1111122,1111122,1111122' 
NDBC,ioos:station:NOAA.NDBC:SANF1:1,2017-05-04T14:50:00Z,24.4560,-81.8770,45.4,7.2,170.0,8.2,'1111122,1111122,1111122' 
NDBC,ioos:station:NOAA.NDBC:SANF1:1,2017-05-04T15:50:00Z,24.4560,-81.8770,45.4,6.7,170.0,7.2,'1111122,1111122,1111122' 
NDBC,ioos:station:NOAA.NDBC:SANF1:1,2017-05-04T16:50:00Z,24.4560,-81.8770,45.4,5.1,170.0,6.2,'1111122,1111122,1111122' 
NDBC,ioos:station:NOAA.NDBC:SANF1:1,2017-05-04T17:50:00Z,24.4560,-81.8770,45.4,3.1,200.0,4.1,'1111122,1111122,1111122' 
NDBC,ioos:station:NOAA.NDBC:SANF1:1,2017-05-04T19:50:00Z,24.4560,-81.8770,45.4,2.6,190.0,2.6,'1111122,1111122,1111122' 
NDBC,ioos:station:NOAA.NDBC:SANF1:1,2017-05-04T21:50:00Z,24.4560,-81.8770,45.4,1.0,340.0,1.5,'1111122,1111122,1111122' 
NDBC,ioos:station:NOAA.NDBC:SANF1:1,2017-05-04T22:50:00Z,24.4560,-81.8770,45.4,3.1,330.0,3.6,'1111122,1111122,1111122' 
NDBC,ioos:station:NOAA.NDBC:SANF1:1,2017-05-04T23:50:00Z,24.4560,-81.8770,45.4,2.6,320.0,3.6,'1111122,1111122,1111122' 
NDBC,ioos:station:NOAA.NDBC:SANF1:1,2017-05-05T00:50:00Z,24.4560,-81.8770,45.4,2.1,350.0,2.1,'1111122,1111122,1111122' 
NDBC,ioos:station:NOAA.NDBC:SANF1:1,2017-05-05T01:50:00Z,24.4560,-81.8770,45.4,1.5,160.0,2.1,'1111122,1111122,1111122' 
NDBC,ioos:station:NOAA.NDBC:SANF1:1,2017-05-05T03:50:00Z,24.4560,-81.8770,45.4,3.1,200.0,4.1,'1111122,1111122,1111122' 
NDBC,ioos:station:NOAA.NDBC:SANF1:1,2017-05-05T05:50:00Z,24.4560,-81.8770,45.4,7.7,190.0,8.8,'1111122,1111122,1111122' 
NDBC,ioos:station:NOAA.NDBC:SANF1:1,2017-05-05T06:50:00Z,24.4560,-81.8770,45.4,8.2,210.0,9.3,'1111122,1111122,1111122' 
NDBC,ioos:station:NOAA.NDBC:SANF1:1,2017-05-05T07:50:00Z,24.4560,-81.8770,45.4,8.2,210.0,9.8,'1111122,1111122,1111122' 
NDBC,ioos:station:NOAA.NDBC:SANF1:1,2017-05-05T08:50:00Z,24.4560,-81.8770,45.4,6.2,210.0,7.2,'1111122,1111122,1111122' 
NDBC,ioos:station:NOAA.NDBC:SANF1:1,2017-05-05T09:50:00Z,24.4560,-81.8770,45.4,8.8,210.0,9.8,'1111122,1111122,1111122' 
NDBC,ioos:station:NOAA.NDBC:SANF1:1,2017-05-05T11:50:00Z,24.4560,-81.8770,45.4,8.2,230.0,9.3,'1111122,1111122,1111122' 
NDBC,ioos:station:NOAA.NDBC:SANF1:1,2017-05-05T12:50:00Z,24.4560,-81.8770,45.4,8.2,230.0,9.8,'1111122,1111122,1111122' 
NDBC,ioos:station:NOAA.NDBC:SANF1:1,2017-05-05T14:50:00Z,24.4560,-81.8770,45.4,8.2,270.0,10.8,'1111122,1111122,1111122' 
NDBC,ioos:station:NOAA.NDBC:SANF1:1,2017-05-05T15:50:00Z,24.4560,-81.8770,45.4,3.1,240.0,4.1,'1111122,1111122,1111122' 
NDBC,ioos:station:NOAA.NDBC:SANF1:1,2017-05-05T16:50:00Z,24.4560,-81.8770,45.4,3.6,320.0,5.1,'1111122,1111122,1111122' 
NDBC,ioos:station:NOAA.NDBC:SANF1:1,2017-05-05T17:50:00Z,24.4560,-81.8770,45.4,5.7,300.0,7.2,'1111122,1111122,1111122' 
NDBC,ioos:station:NOAA.NDBC:SANF1:1,2017-05-05T18:50:00Z,24.4560,-81.8770,45.4,7.7,330.0,8.8,'1111122,1111122,1111122' 
NDBC,ioos:station:NOAA.NDBC:SANF1:1,2017-05-05T19:50:00Z,24.4560,-81.8770,45.4,7.2,350.0,8.8,'1111122,1111122,1111122' 
NDBC,ioos:station:NOAA.NDBC:SANF1:1,2017-05-05T20:50:00Z,24.4560,-81.8770,45.4,7.2,340.0,8.2,'1111122,1111122,1111122' 
NDBC,ioos:station:NOAA.NDBC:SANF1:1,2017-05-05T21:50:00Z,24.4560,-81.8770,45.4,7.7,340.0,9.3,'1111122,1111122,1111122' 
NDBC,ioos:station:NOAA.NDBC:SANF1:1,2017-05-05T22:50:00Z,24.4560,-81.8770,45.4,8.2,350.0,9.8,'1111122,1111122,1111122' 
NDBC,ioos:station:NOAA.NDBC:SANF1:1,2017-05-05T23:50:00Z,24.4560,-81.8770,45.4,8.8,340.0,10.8,'1111122,1111122,1111122' 
NDBC,ioos:station:NOAA.NDBC:SANF1:1,2017-05-06T00:50:00Z,24.4560,-81.8770,45.4,8.8,340.0,9.8,'1111122,1111122,1111122' 
NDBC,ioos:station:NOAA.NDBC:SANF1:1,2017-05-06T01:50:00Z,24.4560,-81.8770,45.4,7.7,330.0,9.3,'1111122,1111122,1111122' 
NDBC,ioos:station:NOAA.NDBC:SANF1:1,2017-05-06T02:50:00Z,24.4560,-81.8770,45.4,7.7,330.0,9.3,'1111122,1111122,1111122' 
NDBC,ioos:station:NOAA.NDBC:SANF1:1,2017-05-06T03:50:00Z,24.4560,-81.8770,45.4,9.3,310.0,10.8,'1111122,1111122,1111122' 
NDBC,ioos:station:NOAA.NDBC:SANF1:1,2017-05-06T04:50:00Z,24.4560,-81.8770,45.4,9.3,310.0,10.8,'1111122,1111122,1111122' 
NDBC,ioos:station:NOAA.NDBC:SANF1:1,2017-05-06T05:50:00Z,24.4560,-81.8770,45.4,9.3,320.0,10.3,'1111122,1111122,1111122' 
NDBC,ioos:station:NOAA.NDBC:SANF1:1,2017-05-06T06:50:00Z,24.4560,-81.8770,45.4,8.8,320.0,10.3,'1111122,1111122,1111122' 
NDBC,ioos:station:NOAA.NDBC:SANF1:1,2017-05-06T07:50:00Z,24.4560,-81.8770,45.4,7.7,310.0,10.3,'1111122,1111122,1111122' 
NDBC,ioos:station:NOAA.NDBC:SANF1:1,2017-05-06T08:50:00Z,24.4560,-81.8770,45.4,7.7,310.0,9.3,'1111122,1111122,1111122' 
NDBC,ioos:station:NOAA.NDBC:SANF1:1,2017-05-06T09:50:00Z,24.4560,-81.8770,45.4,9.3,340.0,10.8,'1111122,1111122,1111122' 
NDBC,ioos:station:NOAA.NDBC:SANF1:1,2017-05-06T10:50:00Z,24.4560,-81.8770,45.4,9.8,340.0,11.8,'1111122,1111122,1111122' 
NDBC,ioos:station:NOAA.NDBC:SANF1:1,2017-05-06T11:50:00Z,24.4560,-81.8770,45.4,9.3,340.0,10.8,'1111122,1111122,1111122' 
NDBC,ioos:station:NOAA.NDBC:SANF1:1,2017-05-06T12:50:00Z,24.4560,-81.8770,45.4,9.3,10.0,11.3,'1111122,1111122,1111122' 
NDBC,ioos:station:NOAA.NDBC:SANF1:1,2017-05-06T14:50:00Z,24.4560,-81.8770,45.4,6.7,10.0,9.3,'1111122,1111122,1111122' 
NDBC,ioos:station:NOAA.NDBC:SANF1:1,2017-05-06T15:50:00Z,24.4560,-81.8770,45.4,6.2,10.0,7.7,'1111122,1111122,1111122' 
NDBC,ioos:station:NOAA.NDBC:SANF1:1,2017-05-06T16:50:00Z,24.4560,-81.8770,45.4,5.1,10.0,6.2,'1111122,1111122,1111122' 
NDBC,ioos:station:NOAA.NDBC:SANF1:1,2017-05-06T17:50:00Z,24.4560,-81.8770,45.4,5.7,360.0,7.2,'1111122,1111122,1111122' 
NDBC,ioos:station:NOAA.NDBC:SANF1:1,2017-05-06T18:50:00Z,24.4560,-81.8770,45.4,5.7,10.0,6.7,'1111122,1111122,1111122' 
NDBC,ioos:station:NOAA.NDBC:SANF1:1,2017-05-06T19:50:00Z,24.4560,-81.8770,45.4,4.1,350.0,5.1,'1111122,1111122,1111122' 
NDBC,ioos:station:NOAA.NDBC:SANF1:1,2017-05-06T20:50:00Z,24.4560,-81.8770,45.4,3.6,340.0,4.1,'1111122,1111122,1111122' 
NDBC,ioos:station:NOAA.NDBC:SANF1:1,2017-05-06T21:50:00Z,24.4560,-81.8770,45.4,3.6,350.0,5.1,'1111122,1111122,1111122' 
NDBC,ioos:station:NOAA.NDBC:SANF1:1,2017-05-06T22:50:00Z,24.4560,-81.8770,45.4,2.6,340.0,4.1,'1111122,1111122,1111122' 
NDBC,ioos:station:NOAA.NDBC:SANF1:1,2017-05-06T23:50:00Z,24.4560,-81.8770,45.4,3.1,340.0,4.6,'1111122,1111122,1111122' 
NDBC,ioos:station:NOAA.NDBC:SANF1:1,2017-05-07T00:50:00Z,24.4560,-81.8770,45.4,4.1,340.0,5.7,'1111122,1111122,1111122' 
NDBC,ioos:station:NOAA.NDBC:SANF1:1,2017-05-07T01:50:00Z,24.4560,-81.8770,45.4,4.6,330.0,5.7,'1111122,1111122,1111122' 
NDBC,ioos:station:NOAA.NDBC:SANF1:1,2017-05-07T02:50:00Z,24.4560,-81.8770,45.4,3.6,340.0,5.1,'1111122,1111122,1111122' 
NDBC,ioos:station:NOAA.NDBC:SANF1:1,2017-05-07T03:50:00Z,24.4560,-81.8770,45.4,2.6,340.0,3.6,'1111122,1111122,1111122' 
NDBC,ioos:station:NOAA.NDBC:SANF1:1,2017-05-07T04:50:00Z,24.4560,-81.8770,45.4,3.1,340.0,4.6,'1111122,1111122,1111122' 
NDBC,ioos:station:NOAA.NDBC:SANF1:1,2017-05-07T05:50:00Z,24.4560,-81.8770,45.4,1.5,320.0,2.6,'1111122,1111122,1111122' 
NDBC,ioos:station:NOAA.NDBC:SANF1:1,2017-05-07T06:50:00Z,24.4560,-81.8770,45.4,1.0,240.0,1.5,'1111122,1111122,1111122' 
NDBC,ioos:station:NOAA.NDBC:SANF1:1,2017-05-07T07:50:00Z,24.4560,-81.8770,45.4,1.0,350.0,2.1,'1111122,1111122,1111122' 
NDBC,ioos:station:NOAA.NDBC:SANF1:1,2017-05-07T08:50:00Z,24.4560,-81.8770,45.4,1.5,330.0,2.6,'1111122,1111122,1111122' 
NDBC,ioos:station:NOAA.NDBC:SANF1:1,2017-05-07T09:50:00Z,24.4560,-81.8770,45.4,1.5,350.0,2.6,'1111122,1111122,1111122' 
NDBC,ioos:station:NOAA.NDBC:SANF1:1,2017-05-07T10:50:00Z,24.4560,-81.8770,45.4,0.5,10.0,1.5,'1111122,1111122,1111122' 
NDBC,ioos:station:NOAA.NDBC:SANF1:1,2017-05-07T11:50:00Z,24.4560,-81.8770,45.4,3.1,40.0,4.1,'1111122,1111122,1111122' 
NDBC,ioos:station:NOAA.NDBC:SANF1:1,2017-05-07T12:50:00Z,24.4560,-81.8770,45.4,3.6,30.0,5.7,'1111122,1111122,1111122' 
NDBC,ioos:station:NOAA.NDBC:SANF1:1,2017-05-07T14:50:00Z,24.4560,-81.8770,45.4,4.1,30.0,5.1,'1111122,1111122,1111122' 
NDBC,ioos:station:NOAA.NDBC:SANF1:1,2017-05-07T15:50:00Z,24.4560,-81.8770,45.4,5.1,40.0,6.7,'1111122,1111122,1111122' 
NDBC,ioos:station:NOAA.NDBC:SANF1:1,2017-05-07T16:50:00Z,24.4560,-81.8770,45.4,4.1,50.0,5.1,'1111122,1111122,1111122' 
NDBC,ioos:station:NOAA.NDBC:SANF1:1,2017-05-07T17:50:00Z,24.4560,-81.8770,45.4,3.6,30.0,5.1,'1111122,1111122,1111122' 
NDBC,ioos:station:NOAA.NDBC:SANF1:1,2017-05-07T18:50:00Z,24.4560,-81.8770,45.4,4.6,30.0,5.1,'1111122,1111122,1111122' 
NDBC,ioos:station:NOAA.NDBC:SANF1:1,2017-05-07T19:50:00Z,24.4560,-81.8770,45.4,3.6,40.0,4.6,'1111122,1111122,1111122' 
NDBC,ioos:station:NOAA.NDBC:SANF1:1,2017-05-07T20:50:00Z,24.4560,-81.8770,45.4,4.6,20.0,5.7,'1111122,1111122,1111122' 
NDBC,ioos:station:NOAA.NDBC:SANF1:1,2017-05-07T21:50:00Z,24.4560,-81.8770,45.4,4.1,360.0,5.1,'1111122,1111122,1111122' 
NDBC,ioos:station:NOAA.NDBC:SANF1:1,2017-05-07T22:50:00Z,24.4560,-81.8770,45.4,4.1,10.0,5.1,'1111122,1111122,1111122' 
NDBC,ioos:station:NOAA.NDBC:SANF1:1,2017-05-07T23:50:00Z,24.4560,-81.8770,45.4,3.6,340.0,4.6,'1111122,1111122,1111122' 
NDBC,ioos:station:NOAA.NDBC:SANF1:1,2017-05-08T00:50:00Z,24.4560,-81.8770,45.4,2.6,360.0,3.6,'1111122,1111122,1111122' 
NDBC,ioos:station:NOAA.NDBC:SANF1:1,2017-05-08T01:50:00Z,24.4560,-81.8770,45.4,2.1,360.0,3.6,'1111122,1111122,1111122' 
NDBC,ioos:station:NOAA.NDBC:SANF1:1,2017-05-08T02:50:00Z,24.4560,-81.8770,45.4,2.1,340.0,3.1,'1111122,1111122,1111122' 
NDBC,ioos:station:NOAA.NDBC:SANF1:1,2017-05-08T03:50:00Z,24.4560,-81.8770,45.4,3.1,350.0,4.6,'1111122,1111122,1111122' 
NDBC,ioos:station:NOAA.NDBC:SANF1:1,2017-05-08T04:50:00Z,24.4560,-81.8770,45.4,3.1,360.0,4.6,'1111122,1111122,1111122' 
NDBC,ioos:station:NOAA.NDBC:SANF1:1,2017-05-08T05:50:00Z,24.4560,-81.8770,45.4,2.6,20.0,3.6,'1111122,1111122,1111122' 
NDBC,ioos:station:NOAA.NDBC:SANF1:1,2017-05-08T06:50:00Z,24.4560,-81.8770,45.4,2.1,20.0,3.1,'1111122,1111122,1111122' 
NDBC,ioos:station:NOAA.NDBC:SANF1:1,2017-05-08T07:50:00Z,24.4560,-81.8770,45.4,2.1,70.0,3.1,'1111122,1111122,1111122' 
NDBC,ioos:station:NOAA.NDBC:SANF1:1,2017-05-08T08:50:00Z,24.4560,-81.8770,45.4,2.6,90.0,3.1,'1111122,1111122,1111122' 
NDBC,ioos:station:NOAA.NDBC:SANF1:1,2017-05-08T09:50:00Z,24.4560,-81.8770,45.4,2.6,100.0,3.1,'1111122,1111122,1111122' 
NDBC,ioos:station:NOAA.NDBC:SANF1:1,2017-05-08T10:50:00Z,24.4560,-81.8770,45.4,3.1,110.0,4.1,'1111122,1111122,1111122' 
NDBC,ioos:station:NOAA.NDBC:SANF1:1,2017-05-08T11:50:00Z,24.4560,-81.8770,45.4,2.1,80.0,2.6,'1111122,1111122,1111122' 
NDBC,ioos:station:NOAA.NDBC:SANF1:1,2017-05-08T12:50:00Z,24.4560,-81.8770,45.4,3.1,70.0,5.1,'1111122,1111122,1111122' 
NDBC,ioos:station:NOAA.NDBC:SANF1:1,2017-05-08T13:50:00Z,24.4560,-81.8770,45.4,2.6,70.0,3.1,'1111122,1111122,1111122' 
NDBC,ioos:station:NOAA.NDBC:SANF1:1,2017-05-08T14:50:00Z,24.4560,-81.8770,45.4,2.6,80.0,3.1,'1111122,1111122,1111122' 
NDBC,ioos:station:NOAA.NDBC:SANF1:1,2017-05-08T15:50:00Z,24.4560,-81.8770,45.4,2.6,40.0,3.6,'1111122,1111122,1111122' 
NDBC,ioos:station:NOAA.NDBC:SANF1:1,2017-05-08T16:50:00Z,24.4560,-81.8770,45.4,4.6,30.0,5.7,'1111122,1111122,1111122' 
NDBC,ioos:station:NOAA.NDBC:SANF1:1,2017-05-08T17:50:00Z,24.4560,-81.8770,45.4,5.1,30.0,5.7,'1111122,1111122,1111122' 
NDBC,ioos:station:NOAA.NDBC:SANF1:1,2017-05-08T18:50:00Z,24.4560,-81.8770,45.4,4.6,30.0,5.7,'1111122,1111122,1111122' 
NDBC,ioos:station:NOAA.NDBC:SANF1:1,2017-05-08T19:50:00Z,24.4560,-81.8770,45.4,4.1,30.0,5.1,'1111122,1111122,1111122' 
NDBC,ioos:station:NOAA.NDBC:SANF1:1,2017-05-08T20:50:00Z,24.4560,-81.8770,45.4,4.1,50.0,7.7,'1111122,1111122,1111122' 
NDBC,ioos:station:NOAA.NDBC:SANF1:1,2017-05-08T21:50:00Z,24.4560,-81.8770,45.4,4.1,30.0,4.6,'1111122,1111122,1111122' 
NDBC,ioos:station:NOAA.NDBC:SANF1:1,2017-05-08T22:50:00Z,24.4560,-81.8770,45.4,2.1,70.0,2.6,'1111122,1111122,1111122' 
NDBC,ioos:station:NOAA.NDBC:SANF1:1,2017-05-08T23:50:00Z,24.4560,-81.8770,45.4,2.1,100.0,3.1,'1111122,1111122,1111122' 
NDBC,ioos:station:NOAA.NDBC:SANF1:1,2017-05-09T00:50:00Z,24.4560,-81.8770,45.4,2.6,80.0,3.1,'1111122,1111122,1111122' 
NDBC,ioos:station:NOAA.NDBC:SANF1:1,2017-05-09T01:50:00Z,24.4560,-81.8770,45.4,3.1,80.0,4.1,'1111122,1111122,1111122' 
NDBC,ioos:station:NOAA.NDBC:SANF1:1,2017-05-09T02:50:00Z,24.4560,-81.8770,45.4,3.6,80.0,4.6,'1111122,1111122,1111122' 
NDBC,ioos:station:NOAA.NDBC:SANF1:1,2017-05-09T03:50:00Z,24.4560,-81.8770,45.4,4.1,90.0,4.6,'1111122,1111122,1111122' 
NDBC,ioos:station:NOAA.NDBC:SANF1:1,2017-05-09T04:50:00Z,24.4560,-81.8770,45.4,4.1,90.0,4.6,'1111122,1111122,1111122' 
NDBC,ioos:station:NOAA.NDBC:SANF1:1,2017-05-09T05:50:00Z,24.4560,-81.8770,45.4,3.6,70.0,4.6,'1111122,1111122,1111122' 
NDBC,ioos:station:NOAA.NDBC:SANF1:1,2017-05-09T06:50:00Z,24.4560,-81.8770,45.4,3.1,60.0,4.1,'1111122,1111122,1111122' 
NDBC,ioos:station:NOAA.NDBC:SANF1:1,2017-05-09T07:50:00Z,24.4560,-81.8770,45.4,4.1,50.0,4.6,'1111122,1111122,1111122' 
NDBC,ioos:station:NOAA.NDBC:SANF1:1,2017-05-09T08:50:00Z,24.4560,-81.8770,45.4,4.6,70.0,5.1,'1111122,1111122,1111122' 
NDBC,ioos:station:NOAA.NDBC:SANF1:1,2017-05-09T09:50:00Z,24.4560,-81.8770,45.4,3.6,70.0,4.6,'1111122,1111122,1111122' 
NDBC,ioos:station:NOAA.NDBC:SANF1:1,2017-05-09T10:50:00Z,24.4560,-81.8770,45.4,3.6,80.0,4.6,'1111122,1111122,1111122' 
NDBC,ioos:station:NOAA.NDBC:SANF1:1,2017-05-09T11:50:00Z,24.4560,-81.8770,45.4,4.6,70.0,5.7,'1111122,1111122,1111122' 
NDBC,ioos:station:NOAA.NDBC:SANF1:1,2017-05-09T12:50:00Z,24.4560,-81.8770,45.4,5.1,60.0,6.2,'1111122,1111122,1111122' 
NDBC,ioos:station:NOAA.NDBC:SANF1:1,2017-05-09T14:50:00Z,24.4560,-81.8770,45.4,4.1,70.0,5.1,'1111122,1111122,1111122' 
NDBC,ioos:station:NOAA.NDBC:SANF1:1,2017-05-09T15:50:00Z,24.4560,-81.8770,45.4,3.1,80.0,4.1,'1111122,1111122,1111122' 
NDBC,ioos:station:NOAA.NDBC:SANF1:1,2017-05-09T16:50:00Z,24.4560,-81.8770,45.4,2.6,90.0,3.1,'1111122,1111122,1111122' 
NDBC,ioos:station:NOAA.NDBC:SANF1:1,2017-05-09T17:50:00Z,24.4560,-81.8770,45.4,3.1,100.0,3.6,'1111122,1111122,1111122' 
NDBC,ioos:station:NOAA.NDBC:SANF1:1,2017-05-09T18:50:00Z,24.4560,-81.8770,45.4,2.1,100.0,2.6,'1111122,1111122,1111122' 
NDBC,ioos:station:NOAA.NDBC:SANF1:1,2017-05-09T19:50:00Z,24.4560,-81.8770,45.4,3.1,100.0,3.6,'1111122,1111122,1111122' 
NDBC,ioos:station:NOAA.NDBC:SANF1:1,2017-05-09T20:50:00Z,24.4560,-81.8770,45.4,3.1,90.0,4.1,'1111122,1111122,1111122' 
NDBC,ioos:station:NOAA.NDBC:SANF1:1,2017-05-09T21:50:00Z,24.4560,-81.8770,45.4,3.6,80.0,4.6,'1111122,1111122,1111122' 
NDBC,ioos:station:NOAA.NDBC:SANF1:1,2017-05-09T23:50:00Z,24.4560,-81.8770,45.4,4.6,130.0,6.2,'1111122,1111122,1111122' 
NDBC,ioos:station:NOAA.NDBC:SANF1:1,2017-05-10T00:50:00Z,24.4560,-81.8770,45.4,5.7,110.0,6.2,'1111122,1111122,1111122' 
NDBC,ioos:station:NOAA.NDBC:SANF1:1,2017-05-10T02:50:00Z,24.4560,-81.8770,45.4,5.7,120.0,6.7,'1111122,1111122,1111122' 
NDBC,ioos:station:NOAA.NDBC:SANF1:1,2017-05-10T03:50:00Z,24.4560,-81.8770,45.4,5.7,120.0,6.2,'1111122,1111122,1111122' 
NDBC,ioos:station:NOAA.NDBC:SANF1:1,2017-05-10T04:50:00Z,24.4560,-81.8770,45.4,5.1,120.0,6.2,'1111122,1111122,1111122' 
NDBC,ioos:station:NOAA.NDBC:SANF1:1,2017-05-10T05:50:00Z,24.4560,-81.8770,45.4,5.7,120.0,7.2,'1111122,1111122,1111122' 
NDBC,ioos:station:NOAA.NDBC:SANF1:1,2017-05-10T06:50:00Z,24.4560,-81.8770,45.4,5.1,120.0,6.2,'1111122,1111122,1111122' 
NDBC,ioos:station:NOAA.NDBC:SANF1:1,2017-05-10T07:50:00Z,24.4560,-81.8770,45.4,4.6,120.0,5.7,'1111122,1111122,1111122' 
NDBC,ioos:station:NOAA.NDBC:SANF1:1,2017-05-10T08:50:00Z,24.4560,-81.8770,45.4,5.1,120.0,6.2,'1111122,1111122,1111122' 
NDBC,ioos:station:NOAA.NDBC:SANF1:1,2017-05-10T09:50:00Z,24.4560,-81.8770,45.4,4.6,110.0,6.2,'1111122,1111122,1111122' 